{"data":{"norad_id":62332,"epoch":"2026-05-25T04:44:49.303104Z","epoch_age_seconds":72047,"freshness":"FRESH","line1":"1 62332U 24240K   26145.19779286  .00000055  00000+0  94029-4 0  9992","line2":"2 62332  86.5032 351.1678 0001391  81.4715 278.6577 13.24408140 69591","mean_motion":13.2440814,"eccentricity":0.0001391,"inclination_deg":86.5032,"raan_deg":351.1678,"arg_perigee_deg":81.4715,"mean_anomaly_deg":278.6577,"bstar":9.4029e-5,"rev_number":6959,"period_min":108.72781256086,"perigee_km":1166.8795929379,"apogee_km":1168.9789085688,"semimajor_km":7546.0662507534,"source":"CELESTRAK","updated_at":"2026-05-25T13:38:02.938812Z"}}